| time (UTC) | temp C | wind direction | speed KPH | gust KPH | rain 1hr cm | rain 24hr cm | rain mn cm | humidity % | barometer mb |
| 20260509073032 | 10 | 210 | 0.0 | 0.0 | 0.00 | 0.03 | 0.00 | 87 | 1013.0 |
| 20260509071514 | 10 | 210 | 0.0 | 0.0 | 0.00 | 0.03 | 0.00 | 87 | 1012.8 |
| 20260509070019 | 10 | 210 | 0.0 | 0.0 | 0.00 | 0.03 | 0.00 | 86 | 1012.8 |
| 20260509064507 | 11 | 210 | 0.0 | 0.0 | 0.00 | 0.03 | 0.00 | 86 | 1013.0 |
| 20260509063005 | 11 | 210 | 0.0 | 0.0 | 0.00 | 0.03 | 0.00 | 85 | 1013.1 |
| 20260509061502 | 11 | 210 | 0.0 | 0.0 | 0.00 | 0.03 | 0.00 | 85 | 1013.5 |
| 20260509060113 | 11 | 210 | 0.0 | 0.0 | 0.00 | 0.03 | 0.00 | 84 | 1013.7 |
| 20260509054556 | 12 | 209 | 0.0 | 0.0 | 0.00 | 0.03 | 0.00 | 84 | 1013.8 |
| 20260509053055 | 12 | 209 | 0.0 | 0.0 | 0.00 | 0.03 | 0.00 | 84 | 1013.9 |
| 20260509051553 | 12 | 210 | 0.0 | 0.0 | 0.00 | 0.03 | 0.00 | 84 | 1014.1 |
| 20260509050050 | 12 | 210 | 0.0 | 0.0 | 0.00 | 0.03 | 0.00 | 84 | 1014.2 |
| 20260509044548 | 12 | 210 | 0.0 | 0.0 | 0.00 | 0.03 | 0.00 | 84 | 1014.5 |
| 20260509043050 | 12 | 210 | 0.0 | 0.0 | 0.00 | 0.03 | 0.00 | 85 | 1014.6 |
| 20260509041545 | 12 | 210 | 0.0 | 6.4 | 0.00 | 0.03 | 0.00 | 85 | 1014.4 |
| 20260509040043 | 12 | 210 | 0.0 | 1.6 | 0.00 | 0.03 | 0.00 | 86 | 1014.5 |
| 20260509034543 | 12 | 210 | 0.0 | 1.6 | 0.00 | 0.03 | 0.03 | 86 | 1014.3 |
| 20260509033043 | 12 | 210 | 0.0 | 0.0 | 0.00 | 0.03 | 0.03 | 86 | 1014.3 |
| 20260509031542 | 12 | 210 | 0.0 | 0.0 | 0.00 | 0.03 | 0.03 | 86 | 1014.4 |
| 20260509030045 | 12 | 210 | 0.0 | 0.0 | 0.00 | 0.03 | 0.03 | 85 | 1014.5 |
| 20260509024540 | 13 | 210 | 0.0 | 0.0 | 0.00 | 0.03 | 0.03 | 85 | 1014.7 |
| 20260509023041 | 13 | 210 | 0.0 | 0.0 | 0.00 | 0.03 | 0.03 | 84 | 1014.8 |
| 20260509021539 | 13 | 210 | 0.0 | 0.0 | 0.00 | 0.03 | 0.03 | 84 | 1014.6 |
| 20260509020138 | 13 | 210 | 0.0 | 0.0 | 0.00 | 0.03 | 0.03 | 83 | 1014.7 |
| 20260509014546 | 14 | 210 | 0.0 | 0.0 | 0.00 | 0.03 | 0.03 | 82 | 1014.6 |
| 20260509013041 | 14 | 210 | 0.0 | 0.0 | 0.00 | 0.03 | 0.03 | 81 | 1014.4 |
| 20260509011537 | 15 | 210 | 0.0 | 0.0 | 0.00 | 0.03 | 0.03 | 80 | 1014.3 |
| 20260509010036 | 15 | 210 | 0.0 | 0.0 | 0.00 | 0.03 | 0.03 | 78 | 1014.2 |
| 20260509004537 | 16 | 210 | 0.0 | 0.0 | 0.00 | 0.03 | 0.03 | 76 | 1014.1 |
| 20260509003041 | 16 | 210 | 0.0 | 0.0 | 0.00 | 0.03 | 0.03 | 74 | 1014.1 |
| 20260509001534 | 17 | 210 | 0.0 | 0.0 | 0.00 | 0.03 | 0.03 | 71 | 1014.0 |
| 20260509000034 | 18 | 183 | 0.0 | 0.0 | 0.00 | 0.03 | 0.03 | 69 | 1013.7 |
| 20260508234553 | 18 | 183 | 0.0 | 0.0 | 0.00 | 0.05 | 0.03 | 67 | 1013.7 |
| 20260508233052 | 20 | 183 | 0.0 | 0.0 | 0.00 | 0.05 | 0.03 | 65 | 1013.5 |
| 20260508231548 | 20 | 183 | 0.0 | 0.0 | 0.00 | 0.05 | 0.03 | 60 | 1013.8 |
| 20260508230047 | 20 | 189 | 0.0 | 0.0 | 0.00 | 0.05 | 0.03 | 61 | 1013.7 |
| 20260508224547 | 20 | 190 | 0.0 | 0.0 | 0.00 | 0.28 | 0.03 | 58 | 1013.9 |
| 20260508223047 | 20 | 195 | 0.0 | 6.4 | 0.00 | 0.28 | 0.03 | 55 | 1014.0 |
| 20260508221546 | 21 | 195 | 0.0 | 6.4 | 0.00 | 0.28 | 0.03 | 47 | 1014.0 |
| 20260508220046 | 21 | 196 | 0.0 | 1.6 | 0.00 | 0.28 | 0.03 | 45 | 1013.7 |
| 20260508214545 | 21 | 196 | 0.0 | 3.2 | 0.00 | 0.48 | 0.03 | 48 | 1013.6 |
| 20260508213048 | 21 | 196 | 0.0 | 4.8 | 0.00 | 0.48 | 0.03 | 46 | 1013.7 |
| 20260508211516 | 21 | 196 | 0.0 | 4.8 | 0.00 | 0.48 | 0.03 | 44 | 1013.9 |
| 20260508210106 | 21 | 191 | 0.0 | 6.4 | 0.00 | 0.48 | 0.03 | 44 | 1014.1 |
| 20260508204521 | 22 | 207 | 0.0 | 3.2 | 0.00 | 0.48 | 0.03 | 39 | 1013.9 |
| 20260508203118 | 22 | 304 | 0.0 | 6.4 | 0.00 | 0.48 | 0.03 | 39 | 1014.2 |
| 20260508201535 | 22 | 101 | 1.6 | 8.0 | 0.00 | 0.48 | 0.03 | 40 | 1014.3 |
| 20260508200125 | 22 | 198 | 3.2 | 8.0 | 0.00 | 0.48 | 0.03 | 40 | 1014.7 |
| 20260508194548 | 21 | 282 | 0.0 | 8.0 | 0.00 | 0.48 | 0.03 | 39 | 1014.8 |
| 20260508193012 | 22 | 182 | 1.6 | 6.4 | 0.00 | 0.48 | 0.03 | 47 | 1015.1 |
| 20260508191611 | 21 | 194 | 0.0 | 12.9 | 0.00 | 0.48 | 0.03 | 44 | 1015.0 |
| 20260508190037 | 21 | 237 | 3.2 | 8.0 | 0.00 | 0.48 | 0.03 | 43 | 1015.5 |
| 20260508184627 | 21 | 208 | 0.0 | 8.0 | 0.00 | 0.48 | 0.03 | 46 | 1015.6 |
| 20260508183046 | 21 | 111 | 0.0 | 8.0 | 0.00 | 0.48 | 0.03 | 43 | 1015.6 |
| 20260508181516 | 21 | 196 | 0.0 | 11.3 | 0.00 | 0.48 | 0.03 | 39 | 1016.0 |
| 20260508180106 | 21 | 284 | 0.0 | 12.9 | 0.00 | 0.48 | 0.03 | 49 | 1016.1 |
| 20260508174533 | 20 | 203 | 0.0 | 11.3 | 0.00 | 0.48 | 0.03 | 45 | 1016.4 |
| 20260508173125 | 21 | 185 | 3.2 | 11.3 | 0.00 | 0.48 | 0.03 | 48 | 1016.5 |
| 20260508171543 | 21 | 190 | 3.2 | 12.9 | 0.00 | 0.48 | 0.03 | 48 | 1016.7 |
| 20260508170131 | 20 | 185 | 6.4 | 11.3 | 0.00 | 0.48 | 0.03 | 47 | 1016.9 |
| 20260508164600 | 20 | 9 | 0.0 | 4.8 | 0.00 | 0.48 | 0.03 | 50 | 1017.0 |
| 20260508163017 | 20 | 82 | 1.6 | 9.7 | 0.00 | 0.48 | 0.03 | 48 | 1017.1 |
| 20260508161601 | 20 | 96 | 1.6 | 12.9 | 0.00 | 0.48 | 0.03 | 53 | 1017.5 |
| 20260508160015 | 19 | 30 | 0.0 | 6.4 | 0.00 | 0.48 | 0.03 | 53 | 1017.6 |
| 20260508154606 | 19 | 76 | 4.8 | 12.9 | 0.00 | 0.53 | 0.03 | 51 | 1017.8 |
| 20260508153024 | 19 | 278 | 1.6 | 11.3 | 0.00 | 0.53 | 0.03 | 48 | 1017.8 |
| 20260508151600 | 19 | 132 | 0.0 | 14.5 | 0.00 | 0.53 | 0.03 | 53 | 1017.8 |
| 20260508150054 | 18 | 46 | 0.0 | 9.7 | 0.00 | 0.53 | 0.03 | 52 | 1018.1 |
| 20260508144551 | 18 | 17 | 4.8 | 12.9 | 0.00 | 0.58 | 0.03 | 54 | 1018.1 |
| 20260508143047 | 18 | 74 | 0.0 | 8.0 | 0.00 | 0.58 | 0.03 | 57 | 1018.0 |
| 20260508141608 | 17 | 50 | 0.0 | 11.3 | 0.00 | 0.58 | 0.03 | 63 | 1017.8 |
| 20260508140038 | 17 | 114 | 3.2 | 11.3 | 0.00 | 0.58 | 0.03 | 68 | 1017.9 |
| 20260508134548 | 16 | 33 | 1.6 | 8.0 | 0.00 | 0.79 | 0.03 | 69 | 1017.9 |
| 20260508133027 | 14 | 5 | 6.4 | 11.3 | 0.00 | 0.79 | 0.03 | 80 | 1017.8 |
| 20260508131524 | 13 | 54 | 0.0 | 4.8 | 0.00 | 0.79 | 0.03 | 94 | 1017.6 |
| 20260508130019 | 12 | 36 | 1.6 | 6.4 | 0.00 | 0.79 | 0.03 | 95 | 1017.4 |
| 20260508124515 | 12 | 59 | 0.0 | 4.8 | 0.00 | 1.04 | 0.03 | 96 | 1017.3 |
| 20260508123020 | 11 | 279 | 0.0 | 3.2 | 0.00 | 1.04 | 0.03 | 96 | 1017.3 |
| 20260508121512 | 10 | 307 | 0.0 | 4.8 | 0.00 | 1.04 | 0.03 | 95 | 1017.3 |
| 20260508120005 | 10 | 307 | 0.0 | 6.4 | 0.03 | 1.04 | 0.03 | 95 | 1017.1 |
| 20260508114505 | 9 | 196 | 0.0 | 0.0 | 0.03 | 1.09 | 0.03 | 95 | 1016.8 |
| 20260508113115 | 8 | 184 | 0.0 | 3.2 | 0.03 | 1.09 | 0.03 | 94 | 1016.6 |
| 20260508111603 | 8 | 174 | 0.0 | 1.6 | 0.03 | 1.09 | 0.03 | 94 | 1016.4 |
| 20260508110100 | 8 | 302 | 0.0 | 3.2 | 0.00 | 1.07 | 0.00 | 94 | 1016.2 |
| 20260508104553 | 8 | 275 | 1.6 | 4.8 | 0.00 | 1.07 | 0.00 | 94 | 1015.6 |
| 20260508103049 | 7 | 26 | 0.0 | 0.0 | 0.00 | 1.07 | 0.00 | 93 | 1015.4 |
| 20260508101549 | 7 | 26 | 0.0 | 0.0 | 0.00 | 1.07 | 0.00 | 93 | 1015.2 |
| 20260508100046 | 8 | 26 | 0.0 | 0.0 | 0.00 | 1.07 | 0.00 | 93 | 1015.2 |
| 20260508094545 | 8 | 26 | 0.0 | 0.0 | 0.00 | 1.12 | 0.00 | 93 | 1015.1 |
| 20260508093047 | 8 | 26 | 0.0 | 0.0 | 0.00 | 1.12 | 0.00 | 93 | 1015.0 |
| 20260508091549 | 8 | 26 | 0.0 | 0.0 | 0.00 | 1.12 | 0.00 | 93 | 1014.7 |
| 20260508090042 | 8 | 26 | 0.0 | 0.0 | 0.00 | 1.12 | 0.00 | 93 | 1014.7 |
| 20260508084537 | 8 | 26 | 0.0 | 0.0 | 0.00 | 1.14 | 0.00 | 93 | 1014.5 |
| 20260508083037 | 8 | 26 | 0.0 | 0.0 | 0.00 | 1.14 | 0.00 | 93 | 1014.4 |
| 20260508081533 | 9 | 26 | 0.0 | 0.0 | 0.00 | 1.14 | 0.00 | 93 | 1014.3 |
| 20260508080035 | 9 | 26 | 0.0 | 0.0 | 0.00 | 1.14 | 0.00 | 93 | 1014.1 |
| 20260508074531 | 9 | 26 | 0.0 | 0.0 | 0.00 | 1.27 | 0.00 | 93 | 1014.0 |